Torna al catalogo

JILIN-01 KUANFU 02B 5

AttivoScienzaSSO
NORAD 61193·PAYLOAD·🇨🇳 China

Lanciato Sep 20, 2024 da Taiyuan Satellite Launch Center

Loading…

Prossimi Passaggi (prossime 24 ore)

TLE

AggiornatoSource: Space-Track

Epoca: Sep 14, 2026, 13:41 UTC

1 61193U 24169E   26257.57074834  .00002495  00000-0  15972-3 0  9999
2 61193  97.5554 345.8870 0012616 350.9229   9.1769 15.09424388109318

Traccia JILIN-01 KUANFU 02B 5 in tempo reale con AllMySat

Download on the App Store